Waarnemingen

Advertentie
Mijn weer
La Coruna, Spanje (8001): temperatuur & dauwpunt: 13.07.2018 23:00:00 - 19.07.2018 23:00:00 (CEST)La Coruna, Spanje (8001): windsnelheid: 13.07.2018 23:00:00 - 19.07.2018 23:00:00 (CEST)La Coruna, Spanje (8001): windrichting: 13.07.2018 23:00:00 - 19.07.2018 23:00:00 (CEST)La Coruna, Spanje (8001): luchtdruk: 13.07.2018 23:00:00 - 19.07.2018 23:00:00 (CEST)La Coruna, Spanje (8001): zicht: 13.07.2018 23:00:00 - 19.07.2018 23:00:00 (CEST)La Coruna, Spanje (8001): neerslag: 13.07.2018 23:00:00 - 19.07.2018 23:00:00 (CEST)
Datum & Tijd tt [°C] td [°C] ff [km/u] ff [kn] dd ppp [hPa] vv [km] rr [mm]
19.07.2018 23:00:00 - - - - - - - -
19.07.2018 22:00:00 17,5 16,0 11 6 N 1020,8 18 0,0
19.07.2018 21:00:00 18,1 15,9 18 10 N 1020,6 19 0,0
19.07.2018 20:00:00 18,4 15,8 16 9 N 1020,3 20 -
19.07.2018 19:00:00 18,4 16,0 18 10 N 1020,0 19 0,0
19.07.2018 18:00:00 18,7 15,8 18 10 N 1019,9 19 0,0
19.07.2018 17:00:00 18,7 15,2 15 8 N 1019,8 20 -
19.07.2018 16:00:00 18,9 15,4 18 10 N 1019,6 19 0,0
19.07.2018 15:00:00 19,0 15,9 18 10 N 1019,7 19 0,0
19.07.2018 14:00:00 18,8 15,5 11 6 N 1019,6 25 -
19.07.2018 13:00:00 20,7 14,8 11 6 NO 1019,4 20 0,0
19.07.2018 12:00:00 19,9 15,3 11 6 ONO 1019,0 20 0,0
19.07.2018 11:00:00 19,4 15,5 13 7 NO 1018,6 25 -
19.07.2018 10:00:00 18,4 16,2 11 6 NNO 1018,1 16 0,0
19.07.2018 09:00:00 18,2 16,2 9 5 NNO 1017,7 14 0,0
19.07.2018 08:00:00 17,9 16,4 9 5 N 1017,4 18 -
19.07.2018 07:00:00 17,6 16,3 11 6 NNO 1016,8 12 0,0
19.07.2018 06:00:00 18,7 16,3 11 6 NNO 1016,7 18 0,0
19.07.2018 05:00:00 19,1 16,7 11 6 NNO 1016,6 20 -
19.07.2018 04:00:00 18,8 16,9 5 3 N 1016,7 18 0,0
19.07.2018 03:00:00 19,2 17,2 5 3 N 1016,8 19 0,0
19.07.2018 02:00:00 19,2 17,3 4 2 WNW 1017,0 20 -
19.07.2018 01:00:00 19,2 17,5 8 4 W 1017,0 16 0,0
19.07.2018 00:00:00 19,2 17,5 8 4 W 1017,1 12 0,0
18.07.2018 23:00:00 19,9 17,7 5 3 W 1016,7 20 -
18.07.2018 22:00:00 20,8 18,0 5 3 W 1016,3 18 0,0
18.07.2018 21:00:00 20,8 17,8 8 4 W 1016,1 16 0,0
18.07.2018 20:00:00 22,5 18,3 9 5 NNW 1015,7 18 -
18.07.2018 19:00:00 21,3 18,1 8 4 NNO 1015,4 16 0,0
18.07.2018 18:00:00 21,4 18,0 13 7 N 1015,7 18 0,0
18.07.2018 17:00:00 21,5 17,9 16 9 N 1015,6 19 -
18.07.2018 16:00:00 21,5 17,7 15 8 N 1015,4 19 0,0
18.07.2018 15:00:00 21,8 18,0 13 7 N 1015,3 20 0,0
18.07.2018 14:00:00 22,8 18,6 11 6 N 1015,3 20 -
18.07.2018 13:00:00 21,2 18,0 5 3 NNW 1015,3 20 0,0
18.07.2018 12:00:00 19,8 17,9 8 4 NNW 1015,4 15 0,0
18.07.2018 11:00:00 21,2 17,8 8 4 NNW 1015,2 12 -
18.07.2018 10:00:00 19,5 17,3 2 1 ONO 1014,8 14 0,0
18.07.2018 09:00:00 18,3 17,0 2 1 ONO 1014,8 14 0,0
18.07.2018 08:00:00 17,5 16,5 8 4 NW 1014,9 12 -
18.07.2018 07:00:00 17,3 16,2 8 4 N 1015,0 14 0,0
18.07.2018 06:00:00 17,5 16,4 5 3 NNW 1014,8 10 0,0
18.07.2018 05:00:00 17,2 16,1 4 2 N 1015,1 12 -
18.07.2018 04:00:00 17,2 16,1 4 2 N 1015,7 14 0,0
18.07.2018 03:00:00 17,2 16,1 5 3 N 1016,2 14 0,0
18.07.2018 02:00:00 17,0 15,7 5 3 NNW 1016,4 12 -
18.07.2018 01:00:00 17,3 15,5 9 5 N 1016,9 14 0,0
18.07.2018 00:00:00 17,4 15,0 8 4 NNO 1017,3 14 0,0
17.07.2018 23:00:00 17,5 14,8 13 7 N 1017,5 18 -
17.07.2018 22:00:00 17,7 14,6 13 7 N 1017,3 19 0,0
17.07.2018 21:00:00 18,2 14,7 24 13 N 1017,5 20 0,0
17.07.2018 20:00:00 18,4 14,9 22 12 N 1017,6 20 -
17.07.2018 19:00:00 18,9 14,8 24 13 N 1018,0 20 0,0
17.07.2018 18:00:00 19,7 14,9 22 12 N 1018,5 20 0,0
17.07.2018 17:00:00 20,1 15,1 18 10 N 1019,1 20 -
17.07.2018 16:00:00 20,2 15,2 16 9 N 1019,5 20 0,0
17.07.2018 15:00:00 20,2 14,8 15 8 N 1019,9 20 0,0
17.07.2018 14:00:00 19,8 14,8 11 6 N 1020,3 25 -
17.07.2018 13:00:00 19,9 14,9 13 7 N 1020,7 20 0,0
17.07.2018 12:00:00 19,6 15,0 13 7 NNW 1020,9 20 0,0
17.07.2018 11:00:00 18,8 16,2 9 5 NNW 1021,0 20 -
17.07.2018 10:00:00 17,9 16,2 5 3 NO 1021,0 17 0,0
17.07.2018 09:00:00 17,1 16,1 8 4 NNW 1021,1 15 0,0
17.07.2018 08:00:00 16,5 15,9 4 2 ONO 1021,2 2,0 -
17.07.2018 07:00:00 16,3 15,8 4 2 W 1021,2 6 0,0
17.07.2018 06:00:00 16,4 15,6 2 1 NO 1021,3 13 0,0
17.07.2018 05:00:00 16,5 15,5 5 3 W 1021,5 3,0 -
17.07.2018 04:00:00 16,7 15,4 2 1 NNO 1021,7 19 0,0
17.07.2018 03:00:00 16,8 15,7 2 1 NO 1022,0 20 0,0
17.07.2018 02:00:00 17,0 15,7 5 3 N 1022,6 20 -
17.07.2018 01:00:00 17,1 15,8 5 3 NW 1022,8 14 0,0
17.07.2018 00:00:00 17,4 16,1 4 2 WNW 1022,9 17 0,0
16.07.2018 23:00:00 17,6 16,1 4 2 N 1022,9 20 -
16.07.2018 22:00:00 17,7 16,4 4 2 N 1022,7 17 0,0
16.07.2018 21:00:00 17,7 16,4 8 4 N 1022,8 6 0,0
16.07.2018 20:00:00 18,3 16,5 11 6 N 1022,6 20 -
16.07.2018 19:00:00 19,9 16,7 18 10 WNW 1022,2 20 0,0
16.07.2018 18:00:00 21,5 16,0 18 10 W 1022,3 20 0,0
16.07.2018 17:00:00 22,1 16,1 21 11 WNW 1022,2 20 -
16.07.2018 16:00:00 21,6 16,3 24 13 W 1022,2 20 0,0
16.07.2018 15:00:00 22,1 15,4 18 10 WNW 1022,4 20 0,0
16.07.2018 14:00:00 21,8 15,6 18 10 WNW 1022,5 25 -
16.07.2018 13:00:00 21,2 15,9 11 6 WNW 1022,5 20 0,0
16.07.2018 12:00:00 20,1 15,7 11 6 W 1022,3 20 0,0
16.07.2018 11:00:00 19,5 15,6 9 5 W 1021,9 20 -
16.07.2018 10:00:00 19,1 16,3 8 4 W 1021,9 19 0,0
16.07.2018 09:00:00 18,1 16,1 13 7 ZZW 1021,7 16 0,0
16.07.2018 08:00:00 17,4 16,1 8 4 ZW 1021,6 12 -
16.07.2018 07:00:00 17,2 16,1 8 4 WZW 1021,3 14 0,0
16.07.2018 06:00:00 17,3 16,3 8 4 WZW 1021,1 17 0,0
16.07.2018 05:00:00 17,3 16,3 8 4 W 1020,8 15 -
16.07.2018 04:00:00 17,3 16,5 5 3 W 1021,1 12 0,0
16.07.2018 03:00:00 17,6 16,8 5 3 WZW 1021,2 10 0,0
16.07.2018 02:00:00 17,6 17,0 8 4 WZW 1021,2 12 -
16.07.2018 01:00:00 17,6 17,0 8 4 W 1021,1 7 0,0
16.07.2018 00:00:00 17,7 16,9 4 2 W 1020,9 6 0,0
15.07.2018 23:00:00 18,1 17,1 4 2 W 1020,7 8 -
15.07.2018 22:00:00 18,2 16,9 5 3 ZW 1020,0 10 0,0
15.07.2018 21:00:00 18,4 16,2 9 5 W 1019,9 16 0,0
15.07.2018 20:00:00 18,6 15,3 13 7 W 1019,5 20 -
15.07.2018 19:00:00 19,1 15,2 8 4 W 1019,5 20 0,0
15.07.2018 18:00:00 19,4 16,4 9 5 W 1019,3 20 0,0
15.07.2018 17:00:00 19,2 16,6 13 7 W 1019,0 17 -
15.07.2018 16:00:00 18,9 16,9 9 5 W 1019,0 10 0,4
15.07.2018 15:00:00 18,6 16,9 11 6 W 1018,9 15 0,0
15.07.2018 14:00:00 18,7 17,0 15 8 WZW 1018,8 2,5 -
15.07.2018 13:00:00 19,3 17,6 11 6 W 1018,6 4,8 0,0
15.07.2018 12:00:00 19,7 17,5 13 7 WZW 1018,3 19 0,0
15.07.2018 11:00:00 19,0 17,0 13 7 WZW 1018,2 6 -
15.07.2018 10:00:00 18,8 16,6 11 6 ZW 1017,9 12 0,0
15.07.2018 09:00:00 18,6 16,9 11 6 WZW 1017,8 10 0,0
15.07.2018 08:00:00 18,3 17,0 9 5 ZW 1017,7 5 -
15.07.2018 07:00:00 18,2 16,4 5 3 WZW 1017,6 15 0,0
15.07.2018 06:00:00 18,4 16,6 5 3 NW 1017,2 11 0,0
15.07.2018 05:00:00 19,0 16,6 4 2 NO 1017,5 15 -
15.07.2018 04:00:00 19,4 16,2 4 2 WZW 1017,4 16 0,0
15.07.2018 03:00:00 19,6 16,2 5 3 Z 1017,9 19 0,0
15.07.2018 02:00:00 19,5 16,7 5 3 ZO 1018,5 8 -
15.07.2018 01:00:00 18,7 16,7 8 4 ZW 1018,5 11 0,0
15.07.2018 00:00:00 18,4 17,2 8 4 WZW 1018,4 6 0,0
14.07.2018 23:00:00 18,6 16,9 13 7 W 1017,8 10 -
14.07.2018 22:00:00 19,3 17,8 8 4 WZW 1017,6 10 0,0
14.07.2018 21:00:00 19,8 18,1 8 4 W 1018,1 11 0,0
14.07.2018 20:00:00 20,5 18,1 8 4 WZW 1017,5 15 -
14.07.2018 19:00:00 20,5 18,1 18 10 W 1017,1 14 0,0
14.07.2018 18:00:00 20,3 18,2 15 8 WZW 1017,8 10 0,0
14.07.2018 17:00:00 23,0 18,5 24 13 W 1017,0 18 -
14.07.2018 16:00:00 23,8 18,7 9 5 WNW 1016,9 20 0,0
14.07.2018 15:00:00 23,5 18,4 11 6 WNW 1017,4 20 0,0
14.07.2018 14:00:00 23,7 17,9 13 7 WNW 1017,3 10 -
14.07.2018 13:00:00 23,5 17,9 9 5 W 1017,2 19 0,0
14.07.2018 12:00:00 23,4 17,8 8 4 NO 1017,2 19 0,0
14.07.2018 11:00:00 22,5 17,8 4 2 NO 1017,4 10 -
14.07.2018 10:00:00 21,9 17,7 5 3 ONO 1017,4 16 0,0
14.07.2018 09:00:00 19,7 17,3 5 3 OZO 1017,4 17 0,0
14.07.2018 08:00:00 18,4 16,9 4 2 ZZO 1017,3 15 -
14.07.2018 07:00:00 17,8 16,3 2 1 NW 1017,2 12 0,0
14.07.2018 06:00:00 18,6 16,6 2 1 N 1017,3 11 0,0
14.07.2018 05:00:00 19,5 17,1 4 2 ZO 1017,3 15 -
14.07.2018 04:00:00 19,1 16,9 2 1 N 1017,5 20 0,0
14.07.2018 03:00:00 19,2 16,8 4 2 NNW 1017,4 18 0,0
14.07.2018 02:00:00 20,5 17,3 2 1 NO 1017,4 15 -
14.07.2018 01:00:00 20,6 17,2 5 3 O 1017,2 20 0,0
14.07.2018 00:00:00 20,9 17,3 5 3 NO 1017,2 20 0,0
13.07.2018 23:00:00 21,3 17,3 13 7 ONO 1016,9 20 -

tt = temperatuur
td = dauwpunt
ff = windsnelheid
dd = windrichting
ppp = luchtdruk
vv = zicht
rr = neerslag

Weerstations in de omgeving